CST,Max TemperatureF,Mean TemperatureF,Min TemperatureF,Max Dew PointF,MeanDew PointF,Min DewpointF,Max Humidity, Mean Humidity, Min Humidity, Max Sea Level PressureIn, Mean Sea Level PressureIn, Min Sea Level PressureIn, Max VisibilityMiles, Mean VisibilityMiles, Min VisibilityMiles, Max Wind SpeedMPH, Mean Wind SpeedMPH, Max Gust SpeedMPH,PrecipitationIn, CloudCover, Events, WindDirDegrees
2013-8-1,88,81,74,74,73,70,94,72,58,29.89,29.86,29.81,12,8,6,8,5,,0.00,7,,223
2013-8-2,90,81,72,73,70,68,85,60,41,29.89,29.85,29.79,12,8,6,18,10,,0.00,4,,78
2013-8-3,93,83,73,75,72,70,89,69,46,29.91,29.86,29.81,12,7,6,15,8,,0.00,5,Rain-Thunderstorm,86
2013-8-4,88,81,74,73,71,68,89,67,48,29.87,29.82,29.77,19,8,6,112,9,,0.00,7,,109
2013-8-5,95,84,72,73,70,68,78,57,39,29.89,29.84,29.78,12,8,6,17,8,,0.00,6,,83
2013-8-6,95,86,76,73,70,66,74,55,38,29.89,29.85,29.82,12,8,6,15,11,,0.00,6,,81
2013-8-7,95,86,78,70,68,66,70,49,34,29.86,29.83,29.78,12,9,6,20,13,28,0.00,7,,67
2013-8-8,96,84,72,74,70,66,83,58,31,29.88,29.82,29.76,12,8,6,8,4,,0.00,6,,83
2013-8-9,93,82,71,74,72,70,94,67,44,29.88,29.84,29.78,12,7,3,13,7,,0.00,5,Rain-Thunderstorm,282
2013-8-10,91,82,74,75,71,68,94,64,41,29.92,29.85,29.79,12,7,1,17,6,,0.00,6,,91
2013-8-11,94,82,71,76,73,70,94,73,44,29.91,29.86,29.79,12,8,6,9,4,,0.02,6,Rain,229
2013-8-12,90,81,72,77,73,71,94,80,54,29.88,29.84,29.78,12,7,1,15,4,,0.59,6,Rain-Thunderstorm,295
2013-8-13,90,81,72,77,74,72,94,83,62,29.89,29.83,29.77,12,7,6,8,5,,0.24,6,Fog-Rain,93
2013-8-14,91,82,73,77,75,72,94,76,60,29.86,29.79,29.72,12,6,0,13,4,,0.00,6,Fog,270
2013-8-15,93,84,75,77,76,73,94,76,54,29.84,29.80,29.73,12,7,1,10,4,,0.39,5,Rain-Thunderstorm,280
2013-8-16,95,83,71,78,74,70,100,82,45,29.90,29.81,29.73,12,5,0,16,5,,3.78,6,Fog-Rain-Thunderstorm,221
2013-8-17,82,77,72,75,74,71,94,84,74,29.93,29.88,29.83,12,8,6,9,4,,3.90,6,Fog-Rain,350
2013-8-18,92,82,73,78,75,72,90,73,58,29.93,29.86,29.79,12,8,6,10,5,,0.01,5,Fog-Rain-Thunderstorm,244
2013-8-19,94,84,75,77,74,67,96,71,33,29.88,29.82,29.73,12,6,0,9,3,,0.00,5,Fog-Rain-Thunderstorm,36
2013-8-20,93,84,74,76,72,69,94,66,38,29.87,29.81,29.76,12,7,0,13,3,,0.00,5,Fog,71
2013-8-21,92,84,75,75,72,71,85,65,48,29.85,29.81,29.77,12,7,6,16,6,,0.00,7,,79
2013-8-22,92,84,75,76,74,72,94,74,44,29.83,29.77,29.71,12,6,0,14,5,,0.00,7,Rain-Thunderstorm,138
2013-8-23,89,81,73,77,75,72,94,77,56,29.86,29.80,29.74,12,8,2,12,2,,0.04,7,Rain,169
2013-8-24,89,81,73,77,74,72,94,80,58,29.91,29.86,29.82,12,6,1,12,4,,0.55,5,Rain-Thunderstorm,214
2013-8-25,91,82,73,77,73,70,94,71,55,29.94,29.88,29.81,12,7,1,13,3,,0.00,6,,95
2013-8-26,93,82,72,77,74,70,89,69,44,29.93,29.87,29.80,12,8,6,10,5,,0.00,5,,253
2013-8-27,88,82,75,75,74,73,94,81,61,29.88,29.85,29.82,12,8,6,11,4,,0.00,6,Rain-Thunderstorm,226
2013-8-28,90,82,73,75,74,70,94,77,46,29.91,29.85,29.78,12,8,6,8,4,,0.00,6,Rain,192
2013-8-29,92,83,74,79,74,70,89,68,43,29.92,29.86,29.79,12,8,6,12,4,,0.00,6,,90
2013-8-30,91,82,74,77,75,73,94,78,53,29.92,29.87,29.80,12,6,0,8,4,,0.16,5,Fog-Rain,230
2013-8-31,89,82,74,78,74,70,94,83,62,29.92,29.87,29.82,12,7,2,10,3,,35.87,6,Rain-Thunderstorm,229